DW4207 Weather Reports


Display with metric or nautical units.
time (UTC)temp
F
wind
direction
speed
MPH
gust
MPH
rain 1hr
in
rain 24hr
in
rain mn
in
humidity
%
barometer
mb
20260831125004 75 172 1.0 4.0 0.00 0.00 0.00 81 1018.6
20260831124004 75 167 2.0 5.0 0.00 0.00 0.00 81 1018.3
20260831123004 74 167 2.0 5.0 0.00 0.00 0.00 81 1018.2
20260831122004 74 161 2.0 5.0 0.00 0.00 0.00 81 1018.2
20260831121004 74 161 2.0 5.0 0.00 0.00 0.00 82 1018.1
20260831120004 73 167 1.0 3.0 0.00 0.00 0.00 84 1018.2
20260831115004 72 160 1.0 3.0 0.00 0.00 0.00 84 1018.2
20260831114004 72 165 1.0 3.0 0.00 0.00 0.00 85 1018.2
20260831113004 72 161 0.0 3.0 0.00 0.00 0.00 85 1018.2
20260831112025 71 138 0.0 2.0 0.00 0.00 0.00 86 1018.1
20260831111025 71 177 0.0 2.0 0.00 0.00 0.00 87 1018.1
20260831110004 70 171 0.0 2.0 0.00 0.00 0.00 89 1018.1
20260831105004 70 0 0.0 0.0 0.00 0.00 0.00 89 1018.2
20260831104004 70 0 0.0 0.0 0.00 0.00 0.00 89 1018.2
20260831103025 70 0 0.0 0.0 0.00 0.00 0.00 88 1018.1
20260831102004 70 0 0.0 0.0 0.00 0.00 0.00 87 1018.0
20260831101004 71 0 0.0 0.0 0.00 0.00 0.00 87 1017.9
20260831100004 71 0 0.0 0.0 0.00 0.00 0.00 87 1017.8
20260831095025 71 0 0.0 0.0 0.00 0.00 0.00 88 1017.7
20260831094004 71 0 0.0 0.0 0.00 0.00 0.00 87 1017.8
20260831093004 71 0 0.0 0.0 0.00 0.00 0.00 86 1017.8
20260831092004 72 0 0.0 0.0 0.00 0.00 0.00 86 1017.8
20260831091004 72 0 0.0 0.0 0.00 0.00 0.00 86 1017.8
20260831090025 72 0 0.0 0.0 0.00 0.00 0.00 87 1017.8
20260831085025 72 0 0.0 0.0 0.00 0.00 0.00 85 1017.9
20260831084025 73 0 0.0 0.0 0.00 0.00 0.00 84 1017.8
20260831083004 73 0 0.0 0.0 0.00 0.00 0.00 84 1017.7
20260831082025 72 0 0.0 0.0 0.00 0.00 0.00 86 1017.5
20260831081004 72 0 0.0 0.0 0.00 0.00 0.00 87 1017.6
20260831080004 72 0 0.0 0.0 0.00 0.00 0.00 86 1017.5
20260831075004 72 0 0.0 0.0 0.00 0.00 0.00 85 1017.5
20260831074004 72 0 0.0 0.0 0.00 0.00 0.00 85 1017.5
20260831073004 72 0 0.0 0.0 0.00 0.00 0.00 85 1017.5
20260831072004 73 0 0.0 0.0 0.00 0.00 0.00 85 1017.5
20260831071004 73 0 0.0 0.0 0.00 0.00 0.00 84 1017.4
20260831070004 73 0 0.0 0.0 0.00 0.00 0.00 84 1017.4
20260831065004 73 0 0.0 0.0 0.00 0.00 0.00 83 1017.2
20260831064004 73 0 0.0 0.0 0.00 0.00 0.00 83 1017.4
20260831063004 74 0 0.0 0.0 0.00 0.00 0.00 82 1017.6
20260831062004 75 0 0.0 0.0 0.00 0.00 0.00 80 1017.7
20260831061025 75 0 0.0 0.0 0.00 0.00 0.00 80 1017.7
20260831060004 74 261 0.0 2.0 0.00 0.00 0.00 82 1017.8
20260831055004 76 244 0.0 2.0 0.00 0.00 0.00 78 1018.0
20260831054004 76 144 0.0 3.0 0.00 0.00 0.00 78 1017.8
20260831053025 77 135 2.0 5.0 0.00 0.00 0.00 77 1017.9
20260831052025 76 131 1.0 6.0 0.00 0.00 0.00 78 1017.7
20260831051004 75 147 0.0 2.0 0.00 0.00 0.00 79 1018.0
20260831050004 74 141 0.0 2.0 0.00 0.00 0.00 84 1017.9
20260831045004 74 0 0.0 0.0 0.00 0.00 0.00 84 1018.1
20260831044004 74 0 0.0 0.0 0.00 0.00 0.00 82 1018.0
20260831043004 74 0 0.0 0.0 0.00 0.00 0.00 83 1017.9
20260831042004 75 0 0.0 0.0 0.00 0.00 0.00 81 1017.9
20260831041004 76 0 0.0 0.0 0.00 0.00 0.00 80 1017.8
20260831040026 76 0 0.0 0.0 0.00 0.00 0.00 79 1017.7
20260831035025 77 0 0.0 0.0 0.00 0.00 0.00 76 1017.7
20260831034004 77 133 0.0 2.0 0.00 0.00 0.00 76 1017.7
20260831033004 76 134 1.0 2.0 0.00 0.00 0.00 78 1017.6
20260831032004 75 223 0.0 1.0 0.00 0.00 0.00 82 1017.5
20260831031004 74 0 0.0 0.0 0.00 0.00 0.00 86 1017.7
20260831030025 74 0 0.0 0.0 0.00 0.00 0.00 88 1017.7
20260831025004 73 0 0.0 0.0 0.00 0.00 0.00 88 1017.9
20260831024004 74 0 0.0 0.0 0.00 0.00 0.00 88 1018.0
20260831023004 74 0 0.0 0.0 0.00 0.00 0.00 88 1017.9
20260831022004 74 0 0.0 0.0 0.00 0.00 0.00 88 1018.0
20260831021004 74 0 0.0 0.0 0.00 0.00 0.00 88 1017.9
20260831020004 74 0 0.0 0.0 0.00 0.00 0.00 87 1017.9
20260831015004 74 0 0.0 0.0 0.00 0.00 0.00 87 1018.0
20260831014025 74 0 0.0 0.0 0.00 0.00 0.00 86 1017.8
20260831013004 75 0 0.0 0.0 0.00 0.00 0.00 85 1017.7
20260831012004 75 0 0.0 0.0 0.00 0.00 0.00 83 1017.5
20260831011004 76 0 0.0 0.0 0.00 0.00 0.00 83 1017.4
20260831010004 76 0 0.0 0.0 0.00 0.00 0.00 84 1017.4
20260831005004 76 0 0.0 0.0 0.00 0.00 0.00 82 1017.4
20260831004004 77 0 0.0 0.0 0.00 0.00 0.00 82 1017.2
20260831003004 77 0 0.0 0.0 0.00 0.00 0.00 83 1017.2
20260831002004 77 0 0.0 0.0 0.00 0.00 0.00 82 1017.3
20260831001025 78 0 0.0 0.0 0.00 0.00 0.00 80 1017.3
20260831000025 78 223 0.0 2.0 0.00 0.00 0.00 81 1017.3
20260830235004 79 0 0.0 0.0 0.00 0.00 0.00 79 1017.4
20260830234004 80 0 0.0 0.0 0.00 0.00 0.00 75 1017.4
20260830233004 81 0 0.0 2.0 0.00 0.00 0.00 73 1017.5
20260830232004 83 223 0.0 2.0 0.00 0.00 0.00 67 1017.5
20260830231004 83 223 0.0 1.0 0.00 0.00 0.00 68 1017.5
20260830230004 84 0 0.0 1.0 0.00 0.00 0.00 65 1017.5
20260830225004 83 192 0.0 4.0 0.00 0.00 0.00 66 1017.4
20260830224025 83 214 1.0 2.0 0.00 0.00 0.00 67 1017.4
20260830223004 84 180 1.0 4.0 0.00 0.00 0.00 63 1017.3
20260830222004 84 193 1.0 5.0 0.00 0.00 0.00 63 1017.3
20260830221004 84 213 2.0 5.0 0.00 0.00 0.00 60 1017.3
20260830220004 84 208 3.0 9.0 0.00 0.00 0.00 60 1017.3
20260830215004 85 217 4.0 9.0 0.00 0.00 0.00 59 1017.1
20260830214004 85 199 3.0 8.0 0.00 0.00 0.00 61 1016.9
20260830213004 85 188 2.0 7.0 0.00 0.00 0.00 60 1016.9
20260830212004 84 192 3.0 8.0 0.00 0.00 0.00 62 1017.0
20260830211004 85 209 3.0 9.0 0.00 0.00 0.00 64 1017.0
20260830210025 85 203 3.0 10.0 0.00 0.00 0.00 62 1017.1
20260830205004 86 187 4.0 8.0 0.00 0.00 0.00 60 1017.3
20260830204004 86 189 4.0 9.0 0.00 0.00 0.00 60 1017.3
20260830203004 85 198 3.0 9.0 0.00 0.00 0.00 61 1017.5
20260830202025 84 195 4.0 9.0 0.00 0.00 0.00 62 1017.7
20260830201025 83 180 2.0 6.0 0.00 0.00 0.00 66 1017.5
20260830200004 82 194 2.0 6.0 0.00 0.00 0.00 66 1017.8
20260830195004 82 150 3.0 9.0 0.00 0.00 0.00 67 1017.9
20260830194004 82 155 5.0 9.0 0.00 0.00 0.00 65 1018.1
20260830193004 82 154 4.0 9.0 0.00 0.00 0.00 65 1018.4
20260830192004 83 146 5.0 12.0 0.00 0.00 0.00 64 1018.5
20260830191004 84 154 4.0 11.0 0.00 0.00 0.00 63 1018.7
20260830190025 82 143 4.0 10.0 0.00 0.00 0.00 66 1019.0
20260830185004 82 154 3.0 6.0 0.00 0.00 0.00 66 1019.2
20260830184004 81 151 3.0 7.0 0.00 0.00 0.00 68 1019.3
20260830183004 80 139 3.0 7.0 0.00 0.00 0.00 67 1019.4
20260830182004 80 130 3.0 7.0 0.00 0.00 0.00 67 1019.3
20260830181004 80 146 3.0 6.0 0.00 0.00 0.00 67 1019.5
20260830180004 80 134 4.0 10.0 0.00 0.00 0.00 70 1019.7
20260830175004 80 146 4.0 8.0 0.00 0.00 0.00 68 1019.8
20260830174004 80 151 3.0 7.0 0.00 0.00 0.00 67 1019.9
20260830173004 79 145 3.0 6.0 0.00 0.00 0.00 71 1019.9
20260830172004 79 194 1.0 3.0 0.00 0.00 0.00 71 1020.2
20260830171004 79 180 2.0 5.0 0.00 0.00 0.00 69 1020.3
20260830170025 79 180 1.0 4.0 0.00 0.00 0.00 71 1020.3
20260830165004 78 182 2.0 4.0 0.00 0.00 0.00 72 1020.6
20260830164003 78 216 2.0 6.0 0.00 0.00 0.00 73 1020.7
20260830163004 77 162 1.0 6.0 0.00 0.00 0.00 75 1020.7
20260830162004 77 164 2.0 5.0 0.00 0.00 0.00 73 1020.7
20260830161004 77 173 1.0 4.0 0.00 0.00 0.00 74 1020.7
20260830160004 76 218 1.0 6.0 0.00 0.00 0.00 75 1020.8
20260830155004 76 170 2.0 6.0 0.00 0.00 0.00 74 1020.6
20260830154004 75 157 1.0 3.0 0.00 0.00 0.00 78 1020.7
20260830153004 75 199 0.0 2.0 0.00 0.00 0.00 79 1020.7
20260830152004 75 225 0.0 2.0 0.00 0.00 0.00 80 1020.5
20260830151025 75 225 0.0 2.0 0.00 0.00 0.00 74 1020.4
20260830150004 76 177 0.0 2.0 0.00 0.00 0.00 73 1020.1
20260830145003 76 177 1.0 3.0 0.00 0.00 0.00 74 1019.8
20260830144004 76 227 1.0 4.0 0.00 0.00 0.00 75 1019.7
20260830143004 76 199 2.0 4.0 0.00 0.00 0.00 74 1019.5
20260830142004 76 172 1.0 4.0 0.00 0.00 0.00 74 1019.4
20260830141004 75 198 1.0 3.0 0.00 0.00 0.00 76 1019.3
20260830140004 74 200 1.0 3.0 0.00 0.00 0.00 78 1019.3
20260830135004 74 191 2.0 6.0 0.00 0.00 0.00 77 1019.3
20260830134003 74 175 3.0 7.0 0.00 0.00 0.00 77 1019.2
20260830133004 73 162 2.0 6.0 0.00 0.00 0.00 78 1019.3
20260830132025 72 201 1.0 5.0 0.00 0.00 0.00 79 1019.5
20260830131003 72 173 1.0 4.0 0.00 0.00 0.00 78 1019.4
20260830130005 72 187 1.0 5.0 0.00 0.00 0.00 78 1019.5